Volver al catálogo

STARLINK-30527

ActivoComunicacionesVLEO
NORAD 58007·PAYLOAD·🇺🇸 United States

Lanzado Oct 5, 2023 desde Cape Canaveral Space Force Station

Loading…

Próximos Pases (próximas 24 horas)

TLE

ActualizadoSource: CelesTrak SupGP

Época: Sep 14, 2026, 20:55 UTC

1 58007C 23153S   26257.87201389  .00033749  00000+0  12222-2 0  2577
2 58007  43.0001 209.9801 0001369 263.4294  59.6814 15.27566496    13

Sigue STARLINK-30527 en tiempo real con AllMySat

Download on the App Store